カタログに戻る

STARLINK-4599

運用中通信VLEO
NORAD 53631·PAYLOAD·🇺🇸 United States

打ち上げ Aug 28, 2022 から Cape Canaveral Space Force Station

Loading…

次のパス (今後24時間)

TLE

最新Source: CelesTrak SupGP

元期: Sep 14, 2026, 21:44 UTC

1 53631C 22104AV  26257.90604167  .00015659  00000+0  44821-3 0  2576
2 53631  53.1587  93.7657 0001239  84.6329  42.0811 15.35378104    17

AllMySatでSTARLINK-4599をリアルタイム追跡

Download on the App Store